Regional Weather Roundup
Issued by NWS Albany, NY

Current Version | Previous Version | Text Only | Print | Product List | Glossary On
Versions: 1 2 3 4 5 6 7 8 9 10 11 12 13 14 15 16 17 18 19 20 21 22 23 24 25 26 27 28 29 30 31 32 33 34 35 36 37 38 39 40 41 42 43 44 45 46 47 48 49 50
000 ASUS41 KALY 312010 RWRALY NEW YORK STATE HOURLY WEATHER ROUNDUP NATIONAL WEATHER SERVICE ALBANY NY 400 PM EDT TUE MAY 31 2016 NOTE: "FAIR" INDICATES FEW OR NO CLOUDS BELOW 12,000 FEET WITH NO SIGNIFICANT WEATHER AND/OR NO OBSTRUCTIONS TO VISIBILITY. NYZ032-033-038>043-046>054-057>066-NYZ062>081-082-084-312100- EAST CITY SKY/WX TMP DP RH WIND PRES REMARKS ALBANY MOSUNNY 82 50 32 W20G26 29.92S GLENS FALLS SUNNY 84 47 27 W15G22 29.88S POUGHKEEPSIE SUNNY 87 54 32 CALM 29.89F NEWBURGH MOSUNNY 82 59 44 SW8 29.93S MONTGOMERY MOSUNNY 86 56 35 VRB5 29.91F WHITE PLAINS MOSUNNY 84 56 38 NW6 29.92F ISLIP MOSUNNY 76 63 64 S10 29.93F NEW YORK CITY MOSUNNY 83 66 56 S15 29.92S CENTRAL PARK MOSUNNY 80 61 52 VRB7 29.94F $$ NYZ005>009-017-018-044>046-055-056-312100- CENTRAL CITY SKY/WX TMP DP RH WIND PRES REMARKS FULTON SUNNY 81 49 32 W15 29.98F SYRACUSE MOSUNNY 79 45 29 W18 29.96F ROME SUNNY 79 46 31 W17G24 29.96F ELMIRA CLOUDY 85 52 32 NW10G18 29.95F BINGHAMTON MOSUNNY 76 52 43 W8 29.99F MONTICELLO MOSUNNY 79 54 41 W10 29.99S $$ NYZ026>034-041>043-087-312100- NORTH CITY SKY/WX TMP DP RH WIND PRES REMARKS WATERTOWN SUNNY 75 50 41 SW17G26 29.95S FORT DRUM NOT AVBL MASSENA PTSUNNY 77 51 40 W13 29.91R SARANAC LAKE MOSUNNY 74 46 36 SW13G22 29.92S PLATTSBURGH MOSUNNY 82 49 31 W9G16 29.85F $$ NYZ001>004-010>016-019>021-085-312100- WEST CITY SKY/WX TMP DP RH WIND PRES REMARKS NIAGARA FALLS CLOUDY 81 45 28 NW14G21 29.99S BUFFALO CLOUDY 80 47 31 SW12 29.99F DUNKIRK MOSUNNY 79 46 31 W7 30.01F JAMESTOWN CLOUDY 75 45 33 W8 30.05S WELLSVILLE PTSUNNY 76 52 43 NW14 30.05S ROCHESTER PTSUNNY 81 49 32 NW12G20 29.98S PENN YAN MOSUNNY 80 52 37 NW9 29.99S $$ KEY WCI = WIND CHILL INDEX VSB = VISIBILITY HX = HEAT INDEX $$

USA.gov is the U.S. government's official web portal to all federal, state and local government web resources and services.